[[{"header":{"parameterUnit":"m.s-1","parameterCategory":1,"la1":30.2992,"la2":30.254,"lo1":-89.0895,"lo2":-89.0443,"dy":0.0025,"dx":0.0025,"nx":19,"ny":19,"refTime":"2026-04-11T03:00:00:Z","depth":0,"parameterNumber":2,"parameterNumberName":"U-component_of_WINDS"},"data":[0,0,0,-2.0468,-2.0469,-2.0478,-2.0478,-2.0515,-2.0515,0,0,0,0,0,0,0,0,0,0,0,-2.048,-2.0481,-2.0468,-2.0469,-2.0478,-2.0478,-2.0515,-2.0515,0,0,0,0,0,0,0,0,0,0,0,-2.048,-2.0481,-2.0482,-2.0469,-2.0478,-2.0478,-2.0514,-2.0499,0,0,0,0,0,0,0,0,0,0,-2.0486,-2.0511,-2.0481,-2.0482,-2.0469,-2.0478,-2.0478,-2.0498,-2.05,-2.0521,0,-2.0544,0,-2.053,-2.0519,-2.052,0,0,0,-2.0458,-2.051,-2.0499,-2.0482,-2.0469,-2.0478,-2.0471,-2.0498,-2.0501,-2.0524,-2.0544,-2.0545,-2.0531,-2.052,-2.052,-2.068,-2.0681,0,0,-2.0457,-2.049,-2.0497,-2.0501,-2.05,-2.047,-2.0471,-2.05,-2.0524,-2.0544,-2.0545,-2.0532,-2.052,-2.0521,-2.0679,-2.0681,0,0,0,-2.0463,-2.0491,-2.0478,-2.05,-2.05,-2.0471,-2.0472,-2.0522,-2.0516,-2.0546,-2.0532,-2.052,-2.0521,-2.0678,-2.068,-2.0775,0,0,0,-2.0462,-2.0494,-2.0478,-2.0499,-2.05,-2.0511,-2.0494,-2.0514,-2.0516,-2.0532,-2.052,-2.0522,-2.0676,-2.0679,-2.0769,-2.0815,0,0,0,-2.0475,-2.0495,-2.0501,-2.05,-2.0505,-2.051,-2.0504,-2.0513,-2.0508,-2.052,-2.0522,-2.0675,-2.0678,-2.0764,-2.0806,-2.0867,0,0,0,-2.0498,-2.0586,-2.0503,-2.0596,-2.0506,-2.0568,-2.0504,-2.0549,-2.057,-2.0521,-2.0676,-2.0679,-2.0762,-2.0801,-2.0862,-2.0926,-2.0955,0,0,-2.0627,-2.0602,-2.0654,-2.0581,-2.0667,-2.0564,-2.0663,-2.0652,-2.0623,-2.0663,-2.0666,-2.0771,-2.0805,-2.0866,-2.1104,-2.1128,0,0,0,-2.0707,-2.0745,-2.076,-2.0781,-2.0774,-2.0772,-2.0741,-2.0737,-2.0769,-2.065,-2.0807,-2.0827,-2.0861,-2.089,-2.091,-2.0938,-2.0694,-2.0693,-2.0693,-2.0939,-2.0896,-2.098,-2.0939,-2.096,-2.0927,-2.0941,-2.093,-2.0881,-2.0919,-2.0931,-2.1081,-2.1116,-2.1131,-2.116,-2.096,-2.096,-2.0961,-2.0961,-2.1126,-2.1173,-2.1105,-2.1162,-2.1117,-2.1165,-2.1137,-2.1101,-2.1139,-2.1068,-2.1096,-2.1024,-2.1158,-2.1181,-2.0968,-2.0966,-2.0966,-2.0965,-2.0964,-2.1274,-2.129,-2.1282,-2.1308,-2.1334,-2.1288,-2.1329,-2.1285,-2.1246,-2.1273,-2.1282,-2.1281,-2.1275,-2.128,-2.1281,-2.1281,-2.1282,-2.1282,-2.1282,-2.1432,-2.142,-2.1459,-2.1458,-2.1466,-2.1472,-2.1439,-2.1446,-2.1443,-2.1409,-2.1409,-2.1358,-2.1178,-2.1135,-2.129,-2.1289,-2.1288,-2.1287,-2.1287,-2.1641,-2.1587,-2.1647,-2.1655,-2.165,-2.1679,-2.1622,-2.1641,-2.164,-2.1662,-2.1603,-2.1477,-2.1449,-2.1433,-2.1397,-2.1611,-2.1611,-2.1611,-2.1611,-2.1768,-2.1749,-2.18,-2.1816,-2.1826,-2.1782,-2.1852,-2.1828,-2.1794,-2.1791,-2.1754,-2.1702,-2.1687,-2.1668,-2.1647,-2.1612,-2.1877,-2.1877,-2.1877,-2.1895,-2.1874,-2.1942,-2.1907,-2.19,-2.1896,-2.1961,-2.1983,-2.1933,-2.1887,-2.1789,-2.1778,-2.1693,-2.1667,-2.1621,-2.1589,-2.1526,0,0]},{"header":{"parameterUnit":"m.s-1","parameterCategory":1,"la1":30.2992,"la2":30.254,"lo1":-89.0895,"lo2":-89.0443,"dy":0.0025,"dx":0.0025,"nx":19,"ny":19,"refTime":"2026-04-11T03:00:00:Z","depth":0,"parameterNumber":3,"parameterNumberName":"V-component_of_WINDS"},"data":[0,0,0,-2.6313,-2.6315,-2.6419,-2.6419,-2.6551,-2.6552,0,0,0,0,0,0,0,0,0,0,0,-2.6283,-2.6284,-2.6313,-2.6315,-2.6419,-2.6419,-2.655,-2.6552,0,0,0,0,0,0,0,0,0,0,0,-2.6283,-2.6284,-2.6285,-2.6316,-2.6418,-2.6419,-2.655,-2.6472,0,0,0,0,0,0,0,0,0,0,-2.6372,-2.6345,-2.6283,-2.6285,-2.6316,-2.6418,-2.6419,-2.6468,-2.6477,-2.6504,0,-2.6529,0,-2.6543,-2.6561,-2.6561,0,0,0,-2.6314,-2.6338,-2.6365,-2.6285,-2.6317,-2.6418,-2.6372,-2.6473,-2.6483,-2.6515,-2.6531,-2.6536,-2.6545,-2.6561,-2.6562,-2.6723,-2.6724,0,0,-2.6309,-2.6302,-2.6358,-2.6372,-2.6357,-2.6368,-2.6375,-2.6479,-2.6495,-2.6531,-2.6539,-2.6547,-2.6562,-2.6563,-2.6722,-2.6723,0,0,0,-2.6293,-2.6298,-2.6323,-2.6366,-2.6385,-2.6371,-2.6379,-2.649,-2.6499,-2.654,-2.6548,-2.6563,-2.6565,-2.6721,-2.6723,-2.6755,0,0,0,-2.6289,-2.6289,-2.632,-2.6317,-2.6383,-2.6439,-2.6388,-2.6492,-2.6504,-2.6548,-2.6563,-2.6566,-2.6721,-2.6722,-2.6753,-2.6772,0,0,0,-2.6276,-2.6287,-2.6302,-2.6316,-2.6361,-2.6438,-2.6452,-2.6495,-2.6509,-2.6561,-2.6566,-2.672,-2.6722,-2.675,-2.6768,-2.6812,0,0,0,-2.6259,-2.6329,-2.6303,-2.6384,-2.636,-2.6458,-2.6452,-2.6525,-2.6573,-2.6564,-2.6721,-2.6722,-2.6749,-2.6765,-2.6809,-2.6848,-2.6863,0,0,-2.6344,-2.6339,-2.6388,-2.6367,-2.6468,-2.6442,-2.6548,-2.6598,-2.6609,-2.6684,-2.6688,-2.6753,-2.6767,-2.6811,-2.6953,-2.6966,0,0,0,-2.6412,-2.6447,-2.6475,-2.6522,-2.6563,-2.6599,-2.6635,-2.6654,-2.6718,-2.6647,-2.6782,-2.679,-2.6816,-2.6835,-2.6845,-2.6868,-2.6731,-2.6731,-2.6731,-2.6521,-2.6532,-2.6613,-2.6637,-2.6682,-2.6718,-2.6755,-2.6786,-2.6783,-2.6815,-2.6837,-2.6922,-2.6944,-2.6952,-2.6975,-2.6859,-2.6859,-2.6859,-2.6859,-2.6646,-2.6697,-2.6692,-2.6769,-2.678,-2.6844,-2.6881,-2.6877,-2.6938,-2.6906,-2.693,-2.6894,-2.6965,-2.6986,-2.6862,-2.6861,-2.6861,-2.6861,-2.6861,-2.6718,-2.6745,-2.6767,-2.6836,-2.6887,-2.6908,-2.6967,-2.6974,-2.6982,-2.7005,-2.7029,-2.7028,-2.7028,-2.7016,-2.7016,-2.7016,-2.7017,-2.7017,-2.7017,-2.6784,-2.6809,-2.6858,-2.6908,-2.6939,-2.698,-2.7017,-2.7048,-2.7083,-2.7084,-2.7084,-2.7077,-2.697,-2.6943,-2.7022,-2.7021,-2.702,-2.702,-2.702,-2.6906,-2.688,-2.6956,-2.6987,-2.7046,-2.7096,-2.7106,-2.7167,-2.7193,-2.7221,-2.721,-2.713,-2.7126,-2.7117,-2.7095,-2.7208,-2.7208,-2.7208,-2.7208,-2.6967,-2.6966,-2.7045,-2.7094,-2.7143,-2.7159,-2.7244,-2.7273,-2.7299,-2.7316,-2.7301,-2.7272,-2.7263,-2.7264,-2.7252,-2.7231,-2.7377,-2.7377,-2.7377,-2.7042,-2.7046,-2.7117,-2.7143,-2.719,-2.723,-2.7309,-2.7365,-2.7389,-2.7384,-2.7329,-2.7322,-2.7275,-2.7259,-2.7252,-2.7234,-2.7196,0,0]}]]